Location: Newark
(35.2672°N, 80.7344°W)
Time: 13:30:53
(UTC+00:00)

SR - Pass Details

Date: 02 February 2020
Orbit: 575 x 880 km, 66.7° (Epoch: 24 February)

Event Time Altitude Azimuth Distance (km) Brightness Sun altitude
Rises 00:48:48 0° 190° (S) 3,358 ? -24.3°
Reaches altitude 10° 00:51:16 10° 185° (S) 2,460 ? -24.8°
Enters shadow 00:55:20 41° 153° (SSE) 1,237 ? -25.6°
